Zurück zum Katalog

FENGYUN 1C DEB

AktivSSO
NORAD 30830·DEBRIS·🇨🇳 China

Gestartet May 10, 1999 von Taiyuan Satellite Launch Center

Loading…

Nächste Überflüge (nächste 24 Stunden)

TLE

AktuellSource: Space-Track

Epoche: Sep 14, 2026, 10:57 UTC

1 30830U 99025AVQ 26257.45627405  .00000240  00000-0  15235-3 0  9999
2 30830  98.7531 244.1077 0031757 125.1622  26.1527 14.12475010  4884

Verfolge FENGYUN 1C DEB in Echtzeit mit AllMySat

Download on the App Store